星链-3769 (STARLINK-3769 )

导读

STARLINK-3769是美国太空探索技术公司(SpaceX)于2022年4月21日发射的星链项目卫星,属于星链低轨卫星互联网星座的组成部分。星链项目旨在通过近地轨道卫星组网,为全球提供高速低延迟宽带服务。该卫星运行于近地轨道,帮助星链扩大全球网络覆盖范围,尤其为偏远地区、海洋等传统通信盲区提供互联网接入服务,支撑星链全球卫星互联网络的构建与运营。

基本信息
目录编号:
52300
目录名称:
STARLINK-3769
国际标识:
2022-041AR
轨道中心:
EARTH
卫星名称:
星链-3769
卫星全名:
星链-3769 (STARLINK-3769 )
卫星状态:
在轨 (已飞行1518 天)
发射日期:
2022-04-21 UTC
国别 :
美国 (US)
星等 :
--
轨道信息
数据来源 国际轨道数据
星历时间: 2026-06-17T05:14:48+0800
18小时前
查看轨道信息
半长轴: 6917.907km
偏心率: 0.0001341
轨道倾角: 53.160°
近地点辐角 92.123°
升交点赤经 13.720°
平近点角 267.992°
近地点: 538.842km
远地点: 540.698km
周期: 95.438分钟
每日圈数: 15.088314
详细信息
固有亮度:
5
最大亮度:
2.5
卫星平台:
Starlink v1.5
覆盖范围:
全球
运营商:
太空探索技术公司
运营商所在国:
美国
制造商(研发单位):
太空探索技术公司
制造商所在国:
美国
使用方式:
暂无
卫星简介
星链(Starlink)计划是由太空探索技术公司(SpaceX)提出的一个巨型低轨卫星互联网星座项目,计划在2019年至2024年间在太空搭建由约1.2万颗卫星组成的“星链”网络,其中1584颗将部署在地球上空550千米处的近地轨道,并从2020年开始工作。该卫星仍在工作。
2D轨道图
3D轨道图
轨道高度分析图
轨道倾角分析图
轨道综合分析图
查看轨道综合分析图